Location: Unspecified
(0.0000°N, 0.0000°E)
Time: 11:08:15
(UTC+00:00)

ACS3 Solar Sail - Pass Details

Date: 14 May 2025
Orbit: 935 x 1009 km, 97.5° (Epoch: 13 May)

Event Time Altitude Azimuth Distance (km) Brightness Sun altitude
Rises 18:40:09 0° 203° (SSW) 3,682 4.9 -10.3°
Reaches altitude 10° 18:43:52 10° 226° (SW) 2,716 4.5 -11.2°
Maximum altitude 18:47:01 15° 257° (WSW) 2,378 4.7 -12.0°
Drops below altitude 10° 18:50:10 10° 289° (WNW) 2,685 5.6 -12.7°
Sets 18:53:50 0° 312° (NW) 3,612 6.1 -13.6°
